Погода в Одессе

Погода в Одессе : погода сейчас, прогноз погоды и архив. Всё, что Вы хотите узнать о погоде в Одессе!

Хотите узнать прогноз погоды в Одессе? Тогда Вам сюда: Погода в Одессе

Поиск расширенной информации на нашем сайте:

Другие новости

Новости СМИ2

Главная страница сайта

Новости сайта

03.07.2017

Напоминаем, что на нашем специализированном сайте Метеоцентр.Азия вы можете получить высокодетализированные автоматические прогнозы погоды по пунктам России, СНГ и мира в авиационном формате (включающие направление и скорость ветра, видимость, явления погоды, количество и форму облачности, нижнюю и верхнюю границу облачности).


Погода в Одессе - сегодня

Время (UTC), дата Ветер
(°,м/с) 
Видим.   Явления Облачность Т
(°С)
Тd
(°С)
f(%) Тe
(°С)
Pmin
(гПа)
dP
(гПа)
Po
(мм)
O2
(г/м3)
Тmin Tmax R s Состояние
почвы
03 18.07.17 320 (СЗ) 45000 м    ясно 
+17.6 +12.9 74 +24  1020.1  0.9  761  286           
06 18.07.17 360 (С) 45000 м    3/0 верхняя 
[Ci fib]
+23.4 +13.3 53 +29  1020.3  0.3  762  280  +17.2         
09 18.07.17 100 (В) 30000 м    3/3 600 м верхняя 
[Cu hum|Ci fib]
+24.4 +11.4 44 +27  1019.6  -0.7  761  279           
12 18.07.17 110 (В) 50000 м    3/0 верхняя 
[Ci fib]
+26 +11 39 +28  1018.2  -1.4  760  278           
15 18.07.17 тихо ()   50000 м    3/0 верхняя 
[Ci fib]
+26.7 +11.2 38 +29  1017.3  -0.8  759  277           
18 18.07.17 тихо ()   45000 м    6/4 600 м верхняя 
[Sc|Ci fib]
+22 +13.1 57 +27  1018  0.6  760  281           
21 18.07.17 310 (СЗ) 25000 м    ясно 
+21.2 +13.1 60 +26  1018.3  0.3  760  282           
00 19.07.17 310 (СЗ) 30000 м    ясно 
+18.9 +12.6 67 +24  1018.2  -0.2  760  284           
03 19.07.17 290 (З) 40000 м    5/0 средняя, верхняя 
[Ac trans|Ci]
+18.5 +12.7 69 +25  1018.6  0.4  760  284           
06 19.07.17 010 (С) 35000 м    3/0 средняя 
[Ac lent]
+24.3 +11.6 45 +27  1019  0.5  761  279  +17.7  +3.4       
09 19.07.17 100 (В) 30000 м    3/1 600 м средняя 
[Cu hum|Ac lent]
+26.5 +8.9 33 +27  1018.4  -0.6  760  278           
12 19.07.17 160 (Ю) 40000 м    4/4 600 м 
[Cu med, cong]
+27.7 +14.3 44 +35  1016.9  -1.4  759  275           
15 19.07.17 тихо ()   40000 м    8/5 600 м верхняя 
[Cu med, cong|Ci fib]
+28.5 +12.4 37 +33  1015.9  -1  758  274           
18 19.07.17 320 (СЗ) 35000 м    6/3 600 м средняя, верхняя 
[Sc|Ac trans|Ci fib]
+25.4 +11.6 42 +29  1015.9  -0.1  758  277    +28.9      мокрая 
21 19.07.17 320 (СЗ) 30000 м    6/0 средняя 
[Ac trans]
+24.1 +12.7 49 +29  1015.8  -0.1  758  278           
00 20.07.17 320 (СЗ) 27000 м    ясно 
+20.5 +15.9 75 +30  1015.8  758  281           
03 20.07.17 350 (С) 35000 м    ясно 
+19.6 +14.2 71 +28  1015.7  -0.1  758  282        <0.5  мокрый или
старый снег
50-90% 
06 20.07.17 030 (СВ) 30000 м    ясно 
+23.7 +14.4 56 +31  1016.1  0.4  758  278  +19.4         
09 20.07.17 100 (В) 30000 м    3/3 600 м 
[Cu hum]
+26.6 +13 43 +32  1015.2  -0.8  758  276           
12 20.07.17 180 (Ю) 35000 м    3/3 600 м 
[Cu hum]
+27.2 +16.5 52 +38  1014.2  -1  757  274           
15 20.07.17 180 (Ю) 40000 м    3/3 600 м 
[Cu hum]
+28.6 +6.1 24 +29  1013.5  -0.7  757  275           
18 20.07.17 270 (З) 30000 м    ясно 
+23.5 +10.6 44 +25  1013.4  -0.2  756  279    +29.1       
21 20.07.17 270 (З) 22000 м    ясно 
+22 +11.7 52 +25  1014  0.6  757  280           
00 21.07.17 тихо ()   21000 м    ясно 
+20.4 +13.4 64 +26  1014.3  0.3  757  281           
03 21.07.17 тихо ()   18000 м    4/0 верхняя 
[Ci fib]
+20.5 +12.5 60 +25  1014.7  0.4  757  281           
Время (UTC), дата Ветер
(°,м/с) 
Видим.   Явления Облачность Т
(°С)
Тd
(°С)
f(%) Тe
(°С)
Pmin
(гПа)
dP
(гПа)
Po
(мм)
O2
(г/м3)
Тmin Tmax R s Состояние
почвы

Для получения пояснительной информации подведите курсор к названию столбца.

ПОГОДА в Одессе - архив

Всё, что Вы хотите узнать о погоде в Одессе - удобно и подробно!

Выберите нужную дату (начиная с 1 января 2015* года) и нажмите кнопку "Найти".
Будут отображены архивные сводки погоды по пункту Одесса, начиная с указанной даты.


Отображать данные в формате CSV (для использования в таблицах Excel)


Внимание! Наш архив погоды предназначен исключительно для личного некоммерческого использования в познавательных целях. Если Вам необходимы официальные справки о состоянии погоды (для производственных, юридических, коммерческих и т.п. целей), обращайтесь в органы Росгидромета.

*Примечание: данная дата относится к архиву по метеостанциям СССР (Россия, СНГ, Балтия).
Архив по метеостанциям Зарубежной Европы и Азии (кроме Китая) хранится 10 дней, по другим регионам земного шара (Китай, Африка, Америка, Австралия, Океания) - 1 день.

Одесса - район местоположения метеостанции


Название, широта, долгота, высота метеостанции:
Одесса (город) 46.4°ш. 30.8°д. 42 м над ур. моря [Украина]

Дополнительная информация

В oтличие oт бoльшинства пoгoдных сайтoв мы публикуем пoдрoбную метеoинфoрмацию в детальнoм прoфессиoнальнoм фoрмате.

Характеристики температуры и влажнoсти вoздуха измеряются на высoте 2 м в тени вдали oт зданий и деревьев.
Скoрoсть ветра измеряется на высoте 10 м (на урoвне рoста челoвека скoрoсть ветра ниже в 1.5-2 раза). Если метеoстанция нахoдится в гoрoде или в лесу, тo скoрoсть ветра занижена на 2-4 м/с пo сравнению с oткрытым местoм. Скoрoсть ветра над акватoриями крупных рек и oзёр, а также на вершинах хoлмoв на 2-5 м/с выше, чем в oбычных услoвиях.
Атмoсфернoе давление в разных тoчках местнoсти мoжет значительнo oтличаться oт давления на метеoстанции, в зависимoсти oт услoвий рельефа (при пoдъёме на 10 м давление пoнижается примернo на 1 мм рт.ст.).